Hourly Weather Yerevan

Today, 2 December, Wednesday

Time Temperature Precipitation Wind Pressure Humidity
00:00 +3°C° 0 mm 0 mps 693 mmHg 71%
01:00 +3°C° 0 mm 0 mps 693 mmHg 72%
02:00 +3°C° 0 mm 0 mps 693 mmHg 73%
03:00 +3°C° 0 mm 1 mps 693 mmHg 73%
04:00 +3°C° 0 mm 1 mps 693 mmHg 74%
05:00 +3°C° 0 mm 1 mps 693 mmHg 74%
06:00 +3°C° 0 mm 1 mps 693 mmHg 75%
07:00 +3°C° 0 mm 0 mps 693 mmHg 69%
08:00 +5°C° 0 mm 0 mps 693 mmHg 63%
09:00 +6°C° 0 mm 0 mps 694 mmHg 57%
10:00 +7°C° 0 mm 0 mps 693 mmHg 53%
11:00 +8°C° 0 mm 0 mps 693 mmHg 50%
12:00 +9°C° 0 mm 0 mps 693 mmHg 46%
13:00 +9°C° 0 mm 0 mps 693 mmHg 46%
14:00 +9°C° 0 mm 0 mps 692 mmHg 45%
15:00 +10°C° 0 mm 0 mps 692 mmHg 44%
16:00 +8°C° 0 mm 0 mps 692 mmHg 49%
17:00 +7°C° 0 mm 0 mps 692 mmHg 54%
18:00 +6°C° 0 mm 0 mps 693 mmHg 59%
19:00 +5°C° 0 mm 0 mps 693 mmHg 60%
20:00 +5°C° 0 mm 0 mps 693 mmHg 62%
21:00 +4°C° 0 mm 0 mps 693 mmHg 63%
22:00 +4°C° 0 mm 0 mps 693 mmHg 65%
23:00 +4°C° 0 mm 0 mps 693 mmHg 67%

Tomorrow, 3 December, Thursday

Time Temperature Precipitation Wind Pressure Humidity
00:00 +3°C° 0 mm 0 mps 693 mmHg 69%
01:00 +3°C° 0 mm 0 mps 693 mmHg 70%
02:00 +3°C° 0 mm 0 mps 693 mmHg 71%
03:00 +3°C° 0 mm 0 mps 693 mmHg 72%
04:00 +2°C° 0 mm 0 mps 693 mmHg 72%
05:00 +2°C° 0 mm 0 mps 693 mmHg 73%
06:00 +3°C° 0 mm 1 mps 693 mmHg 73%
07:00 +3°C° 0 mm 0 mps 694 mmHg 67%
08:00 +5°C° 0 mm 0 mps 694 mmHg 60%
09:00 +6°C° 0 mm 0 mps 695 mmHg 53%
10:00 +7°C° 0 mm 0 mps 695 mmHg 50%
11:00 +8°C° 0 mm 0 mps 694 mmHg 47%
12:00 +9°C° 0 mm 0 mps 694 mmHg 44%
13:00 +11°C° 0 mm 1 mps 694 mmHg 43%
14:00 +11°C° 0 mm 1 mps 694 mmHg 42%
15:00 +11°C° 0 mm 1 mps 694 mmHg 41%
16:00 +10°C° 0 mm 1 mps 694 mmHg 46%
17:00 +8°C° 0 mm 1 mps 694 mmHg 52%
18:00 +6°C° 0 mm 0 mps 694 mmHg 57%
19:00 +6°C° 0 mm 1 mps 694 mmHg 58%
20:00 +6°C° 0 mm 1 mps 694 mmHg 59%
21:00 +6°C° 0 mm 1 mps 694 mmHg 60%
22:00 +4°C° 0 mm 0 mps 694 mmHg 62%
23:00 +4°C° 0 mm 0 mps 694 mmHg 64%

Day after tomorrow, 4 December, Friday

Time Temperature Precipitation Wind Pressure Humidity
00:00 +3°C° 0 mm 0 mps 694 mmHg 67%
01:00 +3°C° 0 mm 0 mps 694 mmHg 67%
02:00 +3°C° 0 mm 0 mps 694 mmHg 68%
03:00 +3°C° 0 mm 0 mps 693 mmHg 69%
04:00 +2°C° 0 mm 0 mps 693 mmHg 70%
05:00 +2°C° 0 mm 0 mps 693 mmHg 71%
06:00 +2°C° 0 mm 0 mps 693 mmHg 72%
07:00 +3°C° 0 mm 0 mps 694 mmHg 66%
08:00 +5°C° 0 mm 0 mps 694 mmHg 59%
09:00 +6°C° 0 mm 0 mps 695 mmHg 52%
10:00 +8°C° 0 mm 1 mps 694 mmHg 50%
11:00 +9°C° 0 mm 1 mps 694 mmHg 47%
12:00 +10°C° 0 mm 1 mps 694 mmHg 45%
13:00 +10°C° 0 mm 1 mps 693 mmHg 44%
14:00 +10°C° 0 mm 1 mps 693 mmHg 44%
15:00 +11°C° 0 mm 1 mps 693 mmHg 43%
16:00 +9°C° 0 mm 1 mps 693 mmHg 49%
17:00 +8°C° 0 mm 1 mps 693 mmHg 54%
18:00 +5°C° 0 mm 0 mps 693 mmHg 60%
19:00 +5°C° 0 mm 0 mps 693 mmHg 61%
20:00 +6°C° 0 mm 1 mps 693 mmHg 61%
21:00 +5°C° 0 mm 1 mps 693 mmHg 62%
22:00 +5°C° 0 mm 1 mps 693 mmHg 64%
23:00 +3°C° 0 mm 0 mps 693 mmHg 66%

5 December, Saturday

Time Temperature Precipitation Wind Pressure Humidity
00:00 +3°C° 0 mm 0 mps 693 mmHg 68%
01:00 +3°C° 0 mm 0 mps 693 mmHg 69%
02:00 +2°C° 0 mm 0 mps 692 mmHg 70%
03:00 +3°C° 0 mm 1 mps 692 mmHg 71%
04:00 +3°C° 0 mm 1 mps 692 mmHg 72%
05:00 +2°C° 0 mm 1 mps 692 mmHg 73%
06:00 +2°C° 0 mm 1 mps 692 mmHg 74%
07:00 +4°C° 0 mm 1 mps 692 mmHg 68%
08:00 +5°C° 0 mm 1 mps 693 mmHg 61%
09:00 +5°C° 0 mm 0 mps 693 mmHg 55%
10:00 +7°C° 0 mm 1 mps 693 mmHg 52%
11:00 +8°C° 0 mm 1 mps 692 mmHg 49%
12:00 +9°C° 0 mm 1 mps 692 mmHg 46%
13:00 +10°C° 0 mm 1 mps 692 mmHg 45%
14:00 +9°C° 0 mm 0 mps 691 mmHg 45%
15:00 +9°C° 0 mm 0 mps 691 mmHg 44%
16:00 +8°C° 0 mm 0 mps 691 mmHg 49%
17:00 +6°C° 0 mm 0 mps 691 mmHg 55%
18:00 +5°C° 0 mm 0 mps 691 mmHg 60%
19:00 +4°C° 0 mm 0 mps 691 mmHg 61%
20:00 +4°C° 0 mm 0 mps 692 mmHg 63%
21:00 +4°C° 0 mm 0 mps 692 mmHg 64%
22:00 +3°C° 0 mm 0 mps 692 mmHg 66%
23:00 +3°C° 0 mm 0 mps 692 mmHg 67%

6 December, Sunday

Time Temperature Precipitation Wind Pressure Humidity
00:00 +2°C° 0 mm 0 mps 692 mmHg 69%
01:00 +2°C° 0 mm 0 mps 692 mmHg 70%
02:00 +2°C° 0 mm 0 mps 692 mmHg 71%
03:00 +2°C° 0 mm 1 mps 691 mmHg 72%
04:00 +2°C° 0 mm 1 mps 691 mmHg 72%
05:00 +2°C° 0 mm 1 mps 691 mmHg 73%
06:00 +2°C° 0 mm 1 mps 691 mmHg 74%
07:00 +3°C° 0 mm 1 mps 691 mmHg 67%
08:00 +4°C° 0 mm 1 mps 692 mmHg 61%
09:00 +5°C° 0 mm 0 mps 692 mmHg 55%
10:00 +7°C° 0 mm 1 mps 692 mmHg 52%
11:00 +8°C° 0 mm 1 mps 692 mmHg 49%
12:00 +9°C° 0 mm 1 mps 691 mmHg 46%
13:00 +9°C° 0 mm 1 mps 691 mmHg 45%
14:00 +9°C° 0 mm 1 mps 691 mmHg 45%
15:00 +9°C° 0 mm 1 mps 691 mmHg 45%
16:00 +8°C° 0 mm 1 mps 691 mmHg 50%
17:00 +5°C° 0 mm 0 mps 691 mmHg 56%
18:00 +4°C° 0 mm 0 mps 691 mmHg 61%
19:00 +4°C° 0 mm 0 mps 691 mmHg 62%
20:00 +3°C° 0 mm 0 mps 692 mmHg 64%
21:00 +3°C° 0 mm 0 mps 692 mmHg 65%
22:00 +3°C° 0 mm 0 mps 692 mmHg 65%
23:00 +2°C° 0 mm 0 mps 692 mmHg 66%

7 December, Monday

Time Temperature Precipitation Wind Pressure Humidity
00:00 +2°C° 0 mm 0 mps 692 mmHg 67%
01:00 +2°C° 0 mm 0 mps 692 mmHg 68%
02:00 +1°C° 0 mm 0 mps 692 mmHg 69%
03:00 +1°C° 0 mm 0 mps 692 mmHg 71%
04:00 +1°C° 0 mm 0 mps 692 mmHg 72%
05:00 +1°C° 0 mm 1 mps 692 mmHg 72%
06:00 +1°C° 0 mm 1 mps 692 mmHg 73%
07:00 +3°C° 0 mm 1 mps 693 mmHg 67%
08:00 +4°C° 0 mm 1 mps 693 mmHg 61%
09:00 +4°C° 0 mm 0 mps 694 mmHg 55%
10:00 +5°C° 0 mm 0 mps 694 mmHg 52%
11:00 +6°C° 0 mm 0 mps 693 mmHg 49%
12:00 +7°C° 0 mm 0 mps 693 mmHg 46%
13:00 +9°C° 0 mm 1 mps 693 mmHg 45%
14:00 +9°C° 0 mm 1 mps 692 mmHg 44%
15:00 +9°C° 0 mm 1 mps 692 mmHg 43%
16:00 +8°C° 0 mm 1 mps 692 mmHg 48%
17:00 +5°C° 0 mm 0 mps 692 mmHg 53%
18:00 +4°C° 0 mm 0 mps 692 mmHg 59%
19:00 +4°C° 0 mm 0 mps 693 mmHg 59%
20:00 +3°C° 0 mm 0 mps 693 mmHg 60%
21:00 +4°C° 0 mm 1 mps 693 mmHg 60%
22:00 +4°C° 0 mm 1 mps 693 mmHg 62%
23:00 +3°C° 0 mm 1 mps 693 mmHg 63%
Show more